Regional Weather Roundup
Issued by NWS Northern Indiana

Home | Current Version | Previous Version | Graphics & Text | Print | Product List | Glossary On
Versions: 1 2 3 4 5 6 7 8 9 10 11 12 13 14 15 16 17 18 19 20 21 22 23 24 25 26 27 28 29 30 31 32 33 34 35 36 37 38 39 40 41 42 43 44 45 46 47 48 49 50
000
ASUS43 KIWX 271300
RWRIWX

KIWX WEATHER ROUNDUP
NATIONAL WEATHER SERVICE NORTHERN INDIANA
900 AM EDT WED MAY 27 2015

NOTE: "FAIR" INDICATES FEW OR NO CLOUDS BELOW 12,000 FEET WITH NO
SIGNIFICANT WEATHER AND/OR OBSTRUCTIONS TO VISIBILITY.

* THESE STATIONS ARE NOT UNDER NWS QUALITY CONTROL. THEY ALSO MAY NOT
  REPORT WEATHER SUCH AS PRECIPITATION OR FOG.

INZ001>027-271400-
NORTHERN INDIANA

CITY           SKY/WX    TMP DP  RH WIND       PRES   REMARKS
GARY*          PTSUNNY   70  63  78 SW13G24   29.96R
SOUTH BEND     MOSUNNY   69  62  78 SW13      29.97R
ELKHART*       PTSUNNY   68  63  83 SW12G21   29.97S
GOSHEN         PTSUNNY   70  62  76 SW20      29.98R
MONTICELLO*    MOSUNNY   69  64  85 SW14G21   30.01R
WARSAW*        SUNNY     70  61  73 SW9G16    29.99S
ANGOLA*        MOSUNNY   70  63  78 SW12      29.98S
FORT WAYNE     MOSUNNY   70  63  78 SW18G24   30.02S
PERU/GRISSOM   PTSUNNY   71  63  74 SW17G29   30.02R

$$
INZ028>050-271400-
CENTRAL INDIANA

CITY           SKY/WX    TMP DP  RH WIND       PRES   REMARKS
LAFAYETTE      MOSUNNY   70  63  78 SW10G24   30.02R
KOKOMO*        MOSUNNY   72  63  73 SW20      30.04R
MUNCIE*        SUNNY     69  62  78 SW9G18    30.05S
INDIANAPOLIS   MOSUNNY   69  62  78 SW13      30.06R

$$
MIZ043>046-050>051-056>058-064>065-071>073-077>080-271400-
SOUTHWEST LOWER MICHIGAN

CITY           SKY/WX    TMP DP  RH WIND       PRES   REMARKS
BATTLE CREEK   MOSUNNY   70  61  73 SW15      29.95R
BENTON HARBOR  SUNNY     68  61  78 SW18G30   29.94R
COLDWATER*     SUNNY     69  61  75 SW16G23   29.97S
HILLSDALE*     SUNNY     69  64  84 SW14G20   29.98S
HOLLAND        CLOUDY    67  60  78 SW23G29   29.92R
GRAND RAPIDS   PTSUNNY   69  62  78 SW16G25   29.90R
KALAMAZOO      MOSUNNY   71  61  70 SW14G20   29.94S
STURGIS*       MOSUNNY   70  63  78 SW14      29.97R
THREE RIVERS*  PTSUNNY   68  61  78 SW10      29.96R

$$
OHZ001>008-015>018-024>025-271400-
NORTHWEST OHIO

CITY           SKY/WX    TMP DP  RH WIND       PRES   REMARKS
DEFIANCE       MOSUNNY   71  61  70 SW12G21   30.00F
FINDLAY        SUNNY     71  64  78 SW13      30.04R
TOLEDO EXPRESS SUNNY     69  61  75 SW12G21   30.01R
TOLEDO METCALF SUNNY     71  62  73 SW17G23   30.02R
LIMA           MOSUNNY   68  62  81 SW14      30.06R

$$
AND FOR LAKE MICHIGAN COASTAL AND OPEN LAKE BUOY OBSERVATIONS

STATION/POSITION TEMP    WIND        PRES    VSBY  WAVE
                 AIR SEA DIR/SP/G                  HT/PER
                 (F)     (DEG/KT/KT) (MB)    (MI)  (FT/S)
CALUMET HARBOR    68     220/  8/ 15   N/A
MICHIGAN CITY     66     190/ 16/ 20   N/A
BURNS HARBOR      67     230/ 12/ 17 1014.6R
SAINT JOSEPH      66     180/ 14/ 20 1014.2S
SOUTH LAKE BUOY   47 38  200/ 14/ 16 1012.7R
4 MI NW BRIDGMAN  60 55  230/ 12/ 12   N/A           3/ 4
MICHIGAN CITY     59 52  240/  8/ 10   N/A           1/ 3

$$
&&



USA.gov is the U.S. government's official web portal to all federal, state and local government web resources and services.